Precipitable_Water
1.01 0.94 0.96 0.97 0.93 0.86 0.86 0.89 0.89 0.89 0.87 0.85 0.83 0.83 0.86 0.89 0.90 0.90 0.93 0.92 1.01 1.07 1.11 1.12 1.13 1.13 1.13 1.14 1.16 1.17 1.20 1.23 1.27 1.28 1.30 1.38 1.48 1.57 1.66 1.69 1.66 1.69 1.70 1.72 1.87 1.91 1.88 1.80 1.75 1.76 1.78 1.71 1.65 1.62 1.58 1.56 1.58 1.63 1.71 1.75 1.72 1.74 1.69 1.58 1.44 1.36 1.48 1.60 1.55 1.55 1.70 1.81 1.83 1.94 1.92 1.96 2.00 2.06 2.06 2.05 2.07 2.04 2.02 2.03 2.03
0.94 0.92 0.92 0.91 0.90 0.91 0.93 0.96 0.96 0.95 0.91 0.86 0.84 0.85 0.86 0.88 0.90 0.92 0.90 0.92 0.97 1.03 1.09 1.12 1.13 1.12 1.10 1.10 1.11 1.13 1.16 1.18 1.23 1.27 1.23 1.24 1.29 1.37 1.47 1.59 1.60 1.63 1.70 1.70 1.78 1.90 1.93 1.88 1.80 1.78 1.80 1.76 1.72 1.66 1.63 1.60 1.56 1.56 1.63 1.70 1.70 1.71 1.80 1.69 1.58 1.50 1.38 1.52 1.51 1.63 1.66 1.83 1.79 1.98 1.90 1.87 1.90 1.97 1.92 1.94 2.03 2.13 2.09 2.04 1.98
0.88 0.91 0.93 0.94 0.95 0.97 0.98 0.96 0.96 0.94 0.91 0.87 0.84 0.84 0.86 0.88 0.92 0.90 0.90 0.93 0.99 1.02 1.05 1.09 1.12 1.13 1.11 1.10 1.09 1.09 1.10 1.12 1.18 1.21 1.23 1.23 1.24 1.29 1.35 1.43 1.52 1.57 1.63 1.68 1.73 1.82 1.87 1.87 1.85 1.84 1.83 1.76 1.74 1.72 1.69 1.64 1.62 1.56 1.57 1.68 1.69 1.72 1.77 1.77 1.69 1.57 1.48 1.45 1.55 1.52 1.59 1.75 1.81 1.84 1.89 1.88 1.89 1.90 1.83 1.88 1.93 2.03 2.05 2.00 1.96
0.96 0.97 0.98 0.99 1.01 1.02 1.00 0.99 0.95 0.91 0.87 0.87 0.86 0.88 0.90 0.91 0.93 0.91 0.92 0.96 0.96 1.01 1.06 1.08 1.11 1.12 1.12 1.11 1.10 1.10 1.09 1.09 1.11 1.15 1.17 1.20 1.23 1.25 1.28 1.32 1.41 1.51 1.59 1.64 1.68 1.75 1.78 1.81 1.84 1.88 1.85 1.77 1.73 1.72 1.71 1.68 1.65 1.61 1.57 1.64 1.70 1.70 1.75 1.78 1.77 1.69 1.64 1.51 1.54 1.51 1.58 1.63 1.73 1.79 1.82 1.87 1.83 1.81 1.83 1.91 2.04 2.07 2.01 1.98 1.95
1.00 1.01 1.03 1.03 1.04 1.04 1.01 0.96 0.89 0.87 0.87 0.88 0.88 0.90 0.93 0.96 0.96 0.95 0.96 0.96 1.00 1.03 1.04 1.09 1.09 1.09 1.08 1.09 1.09 1.10 1.11 1.11 1.09 1.09 1.13 1.18 1.22 1.24 1.26 1.27 1.28 1.37 1.49 1.61 1.67 1.73 1.78 1.78 1.81 1.89 1.90 1.81 1.76 1.73 1.73 1.68 1.67 1.65 1.60 1.61 1.64 1.69 1.73 1.75 1.74 1.75 1.68 1.58 1.54 1.61 1.63 1.63 1.69 1.74 1.82 1.75 1.76 1.79 1.87 1.91 1.94 1.99 2.02 1.97 1.95
1.04 1.05 1.07 1.06 1.06 1.04 0.98 0.91 0.86 0.87 0.89 0.90 0.92 0.94 0.96 0.98 1.01 1.03 1.05 1.04 1.06 1.08 1.08 1.09 1.10 1.08 1.10 1.10 1.10 1.10 1.11 1.11 1.11 1.11 1.10 1.12 1.17 1.23 1.24 1.24 1.25 1.27 1.35 1.51 1.63 1.70 1.75 1.80 1.81 1.86 1.90 1.85 1.80 1.79 1.78 1.73 1.72 1.68 1.66 1.64 1.63 1.66 1.67 1.68 1.71 1.70 1.68 1.64 1.61 1.56 1.65 1.60 1.66 1.75 1.83 1.79 1.68 1.67 1.77 1.89 1.93 1.96 1.97 1.87 1.89
1.07 1.08 1.08 1.08 1.06 1.01 0.93 0.87 0.88 0.90 0.92 0.93 0.95 0.96 0.97 1.01 1.05 1.06 1.10 1.11 1.09 1.08 1.10 1.10 1.12 1.12 1.11 1.12 1.10 1.10 1.09 1.10 1.10 1.10 1.11 1.10 1.10 1.15 1.21 1.24 1.24 1.26 1.28 1.35 1.54 1.67 1.75 1.82 1.85 1.85 1.86 1.89 1.87 1.84 1.83 1.80 1.77 1.73 1.72 1.69 1.67 1.62 1.60 1.60 1.63 1.62 1.60 1.59 1.65 1.67 1.67 1.78 1.79 1.70 1.82 1.85 1.80 1.75 1.68 1.71 1.75 1.88 1.89 1.83 1.79
1.09 1.10 1.09 1.07 1.04 0.97 0.92 0.90 0.93 0.96 0.98 0.98 0.98 0.98 1.00 1.02 1.04 1.08 1.10 1.08 1.07 1.07 1.07 1.07 1.10 1.12 1.12 1.11 1.11 1.12 1.10 1.08 1.08 1.09 1.09 1.08 1.07 1.09 1.15 1.22 1.25 1.25 1.26 1.29 1.39 1.56 1.70 1.81 1.87 1.88 1.88 1.90 1.90 1.91 1.90 1.82 1.82 1.77 1.78 1.75 1.71 1.64 1.56 1.55 1.55 1.54 1.52 1.53 1.56 1.62 1.72 1.72 1.80 1.85 1.87 1.86 1.77 1.78 1.81 1.75 1.67 1.72 1.77 1.84 1.85
1.11 1.09 1.08 1.03 0.97 0.94 0.92 0.94 0.97 0.99 1.01 1.02 1.02 1.03 1.04 1.05 1.07 1.08 1.08 1.08 1.08 1.07 1.08 1.09 1.08 1.08 1.11 1.11 1.11 1.12 1.10 1.07 1.08 1.07 1.07 1.06 1.07 1.06 1.10 1.16 1.23 1.25 1.24 1.25 1.31 1.42 1.58 1.73 1.84 1.90 1.93 1.92 1.94 1.96 1.96 1.93 1.84 1.76 1.76 1.77 1.72 1.66 1.59 1.54 1.51 1.49 1.48 1.49 1.50 1.59 1.63 1.68 1.73 1.74 1.72 1.70 1.63 1.61 1.79 1.85 1.78 1.81 1.82 1.79 1.85
1.10 1.07 1.01 0.97 0.95 0.94 0.94 0.96 0.99 1.02 1.01 1.01 1.04 1.07 1.09 1.09 1.09 1.09 1.10 1.12 1.12 1.12 1.12 1.12 1.11 1.08 1.07 1.09 1.12 1.11 1.09 1.09 1.10 1.13 1.15 1.11 1.09 1.09 1.11 1.15 1.21 1.25 1.25 1.23 1.24 1.30 1.42 1.60 1.75 1.85 1.91 1.94 1.95 1.96 1.97 1.96 1.94 1.88 1.82 1.80 1.75 1.69 1.63 1.57 1.52 1.49 1.47 1.44 1.45 1.47 1.48 1.54 1.64 1.68 1.64 1.67 1.76 1.88 1.86 1.84 1.73 1.78 1.82 1.78 1.81
1.03 0.98 0.93 0.94 0.94 0.95 0.96 0.97 1.01 1.01 1.02 1.03 1.05 1.08 1.12 1.14 1.13 1.11 1.11 1.11 1.10 1.11 1.12 1.10 1.09 1.10 1.08 1.07 1.07 1.09 1.09 1.09 1.10 1.11 1.13 1.15 1.15 1.13 1.10 1.11 1.19 1.24 1.25 1.24 1.21 1.23 1.31 1.47 1.63 1.76 1.85 1.93 1.96 1.98 1.97 1.99 1.99 1.94 1.90 1.88 1.86 1.80 1.71 1.65 1.60 1.57 1.51 1.46 1.48 1.47 1.45 1.47 1.58 1.67 1.66 1.70 1.78 1.79 1.78 1.81 1.78 1.75 1.69 1.61 1.53
0.93 0.91 0.91 0.93 0.95 0.95 0.96 0.98 1.00 1.01 1.03 1.03 1.05 1.07 1.10 1.12 1.13 1.13 1.11 1.09 1.10 1.12 1.09 1.08 1.09 1.08 1.07 1.06 1.04 1.05 1.07 1.10 1.11 1.13 1.14 1.17 1.19 1.17 1.15 1.12 1.13 1.17 1.21 1.24 1.26 1.25 1.25 1.34 1.51 1.67 1.76 1.86 1.93 1.95 1.98 1.95 1.99 1.99 1.95 1.92 1.91 1.92 1.91 1.82 1.72 1.65 1.60 1.52 1.47 1.46 1.47 1.48 1.55 1.65 1.67 1.70 1.70 1.75 1.78 1.80 1.81 1.73 1.66 1.63 1.62
0.91 0.91 0.94 0.96 0.98 0.99 0.99 0.98 0.99 1.01 1.03 1.05 1.06 1.07 1.07 1.07 1.07 1.09 1.08 1.11 1.12 1.08 1.09 1.11 1.10 1.12 1.11 1.07 1.04 1.06 1.08 1.12 1.14 1.16 1.18 1.20 1.21 1.22 1.18 1.16 1.14 1.14 1.18 1.22 1.24 1.26 1.26 1.28 1.38 1.55 1.67 1.80 1.92 1.96 1.92 1.90 1.97 2.00 2.00 2.03 2.01 1.99 1.96 1.94 1.92 1.81 1.74 1.61 1.50 1.46 1.47 1.51 1.52 1.57 1.67 1.69 1.79 1.71 1.74 1.72 1.74 1.74 1.72 1.66 1.68
0.93 0.93 0.96 0.98 1.00 1.00 0.99 0.99 1.00 1.03 1.05 1.05 1.07 1.07 1.06 1.05 1.07 1.09 1.10 1.11 1.09 1.07 1.09 1.09 1.10 1.11 1.11 1.10 1.09 1.11 1.12 1.16 1.18 1.19 1.21 1.24 1.26 1.27 1.23 1.19 1.18 1.17 1.17 1.20 1.23 1.26 1.29 1.28 1.31 1.41 1.58 1.73 1.87 1.93 1.92 1.89 1.93 1.98 2.01 2.04 2.08 2.00 2.00 1.97 1.95 1.93 1.87 1.75 1.67 1.59 1.61 1.63 1.54 1.58 1.70 1.78 1.73 1.70 1.74 1.77 1.88 1.82 1.76 1.70 1.79
0.93 0.96 0.98 1.00 1.00 1.00 1.00 1.02 1.02 1.03 1.03 1.04 1.06 1.06 1.07 1.08 1.08 1.09 1.09 1.08 1.06 1.05 1.05 1.06 1.07 1.10 1.12 1.15 1.15 1.15 1.19 1.23 1.25 1.26 1.26 1.27 1.30 1.32 1.27 1.23 1.22 1.21 1.20 1.22 1.25 1.27 1.31 1.34 1.35 1.39 1.49 1.62 1.77 1.89 1.91 1.91 1.94 1.97 1.96 1.98 1.98 2.00 2.06 2.05 2.03 2.01 1.98 1.95 1.88 1.83 1.82 1.85 1.79 1.80 1.87 1.91 1.86 1.86 1.88 1.93 1.99 1.99 1.92 1.95 1.92
0.96 0.98 0.98 0.99 1.02 1.05 1.06 1.04 1.03 1.03 1.03 1.05 1.05 1.05 1.07 1.08 1.07 1.09 1.10 1.10 1.11 1.12 1.11 1.12 1.11 1.12 1.14 1.17 1.18 1.17 1.23 1.29 1.31 1.32 1.33 1.33 1.35 1.36 1.31 1.24 1.21 1.22 1.22 1.24 1.27 1.29 1.33 1.36 1.36 1.39 1.45 1.53 1.65 1.83 1.94 2.00 2.01 1.98 1.95 1.96 1.92 1.97 2.05 2.12 2.13 2.10 2.06 2.05 2.00 1.93 1.94 1.98 1.96 1.99 2.03 2.04 2.03 2.03 2.01 2.00 2.06 2.05 1.94 1.81 1.72
0.95 0.97 0.98 1.02 1.06 1.07 1.07 1.04 1.03 1.03 1.04 1.04 1.04 1.05 1.06 1.06 1.08 1.12 1.10 1.11 1.11 1.12 1.11 1.13 1.17 1.18 1.18 1.21 1.22 1.24 1.28 1.35 1.40 1.41 1.41 1.41 1.41 1.40 1.36 1.29 1.24 1.22 1.22 1.25 1.29 1.31 1.33 1.36 1.39 1.41 1.44 1.48 1.59 1.76 1.93 2.03 1.99 1.98 1.94 1.92 1.90 1.88 1.94 2.09 2.17 2.15 2.11 2.10 2.10 2.08 2.10 2.09 2.06 2.08 2.11 2.15 2.14 2.10 2.08 1.95 1.83 1.90 1.82 1.70 1.70
0.96 0.99 1.02 1.05 1.06 1.06 1.06 1.06 1.04 1.04 1.05 1.03 1.03 1.04 1.06 1.07 1.06 1.11 1.09 1.10 1.12 1.16 1.19 1.18 1.20 1.23 1.24 1.26 1.31 1.32 1.36 1.44 1.49 1.52 1.53 1.51 1.50 1.45 1.41 1.34 1.27 1.24 1.24 1.28 1.32 1.33 1.33 1.34 1.39 1.42 1.42 1.42 1.51 1.68 1.87 2.01 2.00 1.98 1.95 1.90 1.86 1.84 1.89 2.00 2.07 2.13 2.16 2.16 2.16 2.16 2.16 2.15 2.13 2.13 2.17 2.20 2.20 2.19 2.10 1.84 1.81 1.88 1.77 1.73 1.64
1.00 1.03 1.05 1.07 1.07 1.07 1.08 1.09 1.08 1.07 1.05 1.04 1.05 1.04 1.04 1.04 1.07 1.11 1.13 1.16 1.17 1.21 1.24 1.22 1.23 1.28 1.35 1.40 1.44 1.47 1.48 1.52 1.56 1.57 1.58 1.57 1.54 1.51 1.45 1.37 1.28 1.24 1.26 1.26 1.31 1.34 1.37 1.36 1.38 1.42 1.43 1.42 1.48 1.63 1.79 1.94 1.98 2.00 1.97 1.90 1.87 1.84 1.88 1.97 1.99 2.01 2.06 2.07 2.10 2.15 2.16 2.17 2.18 2.14 2.13 2.16 2.19 2.18 2.16 2.05 1.96 1.87 1.75 1.74 1.73
1.07 1.09 1.09 1.08 1.08 1.08 1.09 1.08 1.08 1.07 1.06 1.06 1.07 1.07 1.08 1.07 1.08 1.11 1.14 1.19 1.21 1.24 1.25 1.26 1.27 1.34 1.45 1.52 1.55 1.57 1.56 1.57 1.61 1.63 1.63 1.61 1.59 1.54 1.49 1.38 1.28 1.25 1.27 1.29 1.28 1.31 1.33 1.33 1.33 1.36 1.39 1.43 1.51 1.62 1.75 1.89 1.97 2.00 1.99 1.90 1.85 1.81 1.96 2.03 2.06 2.05 2.05 2.06 2.09 2.14 2.15 2.18 2.18 2.17 2.17 2.21 2.23 2.23 2.20 2.15 2.06 1.94 1.83 1.79 1.76
1.08 1.07 1.07 1.05 1.04 1.04 1.06 1.07 1.06 1.07 1.07 1.06 1.07 1.07 1.07 1.07 1.09 1.12 1.15 1.20 1.23 1.22 1.23 1.27 1.35 1.43 1.53 1.60 1.62 1.63 1.66 1.64 1.67 1.69 1.68 1.66 1.63 1.57 1.50 1.41 1.35 1.29 1.26 1.27 1.30 1.29 1.30 1.30 1.31 1.35 1.39 1.44 1.52 1.60 1.71 1.85 1.99 2.01 1.98 1.91 1.87 1.93 2.07 2.06 2.06 2.11 2.11 2.12 2.11 2.12 2.15 2.15 2.15 2.18 2.20 2.19 2.19 2.21 2.21 2.17 2.11 2.04 1.94 1.85 1.80
1.06 1.04 1.02 1.01 1.01 1.02 1.03 1.05 1.06 1.05 1.05 1.05 1.03 1.02 1.05 1.08 1.10 1.13 1.18 1.20 1.19 1.17 1.22 1.33 1.43 1.50 1.59 1.64 1.64 1.65 1.69 1.71 1.70 1.71 1.70 1.68 1.65 1.61 1.52 1.45 1.42 1.36 1.31 1.29 1.30 1.30 1.30 1.31 1.32 1.37 1.43 1.48 1.52 1.58 1.68 1.84 1.96 2.02 2.00 1.96 1.98 2.03 2.04 2.06 2.08 2.10 2.09 2.06 2.07 2.05 2.05 2.07 2.09 2.11 2.11 2.15 2.17 2.21 2.23 2.15 2.13 2.08 2.07 2.02 1.92
1.00 0.99 0.98 0.98 1.00 1.02 1.03 1.03 1.02 1.03 1.02 1.04 1.02 0.99 1.00 1.01 1.06 1.13 1.15 1.16 1.15 1.16 1.27 1.42 1.50 1.54 1.59 1.64 1.66 1.66 1.68 1.71 1.73 1.70 1.70 1.68 1.66 1.61 1.55 1.48 1.46 1.44 1.36 1.28 1.27 1.28 1.34 1.35 1.38 1.42 1.46 1.50 1.53 1.59 1.68 1.83 1.93 2.00 1.99 1.97 2.00 2.04 2.07 2.03 2.05 2.04 2.01 2.01 2.02 2.01 1.99 1.96 1.97 2.02 2.06 2.07 2.13 2.17 2.15 2.14 2.12 2.11 2.09 2.09 2.06
0.99 0.98 0.99 1.01 1.01 1.01 1.01 1.01 1.02 1.02 1.01 1.01 1.00 0.97 0.95 0.97 1.02 1.07 1.10 1.11 1.13 1.20 1.36 1.48 1.54 1.56 1.58 1.59 1.64 1.68 1.71 1.72 1.73 1.72 1.70 1.68 1.64 1.58 1.53 1.50 1.48 1.46 1.44 1.37 1.34 1.33 1.33 1.36 1.39 1.43 1.46 1.52 1.56 1.59 1.68 1.80 1.89 1.96 1.96 1.98 2.00 2.01 1.99 1.97 1.97 1.97 1.97 1.94 1.93 1.92 1.92 1.97 2.02 2.03 2.05 2.11 2.14 2.17 2.18 2.14 2.11 2.11 2.10 2.07 2.04
0.97 0.97 0.98 0.99 0.99 0.99 0.99 0.98 0.96 0.96 0.97 0.98 0.94 0.92 0.91 0.95 0.94 0.98 1.02 1.06 1.16 1.25 1.39 1.51 1.57 1.57 1.59 1.58 1.61 1.66 1.70 1.72 1.72 1.72 1.71 1.69 1.67 1.61 1.55 1.53 1.51 1.50 1.45 1.43 1.42 1.41 1.42 1.43 1.46 1.51 1.55 1.56 1.56 1.60 1.67 1.78 1.87 1.90 1.94 1.95 1.97 2.01 2.00 1.96 1.92 1.95 1.92 1.87 1.86 1.87 1.91 1.97 1.99 1.99 2.01 2.07 2.13 2.16 2.12 2.09 2.10 2.10 2.10 2.09 2.07
0.93 0.94 0.95 0.95 0.95 0.96 0.92 0.91 0.92 0.93 0.94 0.96 0.95 0.95 0.94 0.95 0.93 0.94 0.98 1.08 1.20 1.30 1.42 1.54 1.59 1.61 1.61 1.64 1.63 1.66 1.69 1.70 1.71 1.72 1.72 1.71 1.68 1.63 1.57 1.53 1.52 1.53 1.50 1.46 1.46 1.46 1.46 1.48 1.51 1.53 1.54 1.55 1.57 1.57 1.60 1.69 1.79 1.86 1.89 1.91 1.95 1.96 1.94 1.93 1.95 1.85 1.82 1.82 1.83 1.82 1.86 1.92 1.95 1.98 2.02 2.04 2.00 1.99 2.04 2.03 1.99 1.98 2.00 1.97 1.90
0.90 0.91 0.92 0.93 0.95 0.94 0.91 0.88 0.87 0.88 0.89 0.92 0.94 0.97 1.01 1.00 0.98 0.97 1.04 1.14 1.24 1.34 1.47 1.56 1.60 1.61 1.60 1.63 1.65 1.66 1.64 1.64 1.66 1.70 1.73 1.69 1.66 1.64 1.61 1.54 1.53 1.52 1.50 1.46 1.44 1.46 1.51 1.55 1.56 1.57 1.56 1.58 1.59 1.59 1.59 1.63 1.68 1.75 1.81 1.86 1.86 1.84 1.84 1.83 1.79 1.77 1.79 1.80 1.83 1.83 1.85 1.85 1.88 1.90 1.86 1.87 1.89 1.95 1.97 1.93 1.95 1.95 1.92 1.87 1.81
0.89 0.89 0.90 0.91 0.89 0.88 0.85 0.85 0.85 0.85 0.87 0.90 0.93 0.97 1.01 1.03 1.01 1.03 1.12 1.22 1.29 1.40 1.51 1.58 1.59 1.57 1.58 1.62 1.63 1.61 1.60 1.62 1.64 1.63 1.67 1.68 1.65 1.63 1.60 1.56 1.51 1.48 1.45 1.46 1.46 1.48 1.50 1.53 1.54 1.53 1.52 1.50 1.51 1.51 1.51 1.53 1.56 1.62 1.71 1.79 1.81 1.83 1.85 1.84 1.84 1.83 1.81 1.81 1.80 1.83 1.80 1.80 1.76 1.77 1.78 1.79 1.79 1.80 1.84 1.81 1.75 1.75 1.78 1.77 1.66
0.88 0.85 0.85 0.84 0.83 0.85 0.86 0.86 0.88 0.88 0.89 0.94 0.99 1.03 1.01 1.02 1.05 1.14 1.31 1.43 1.51 1.56 1.57 1.59 1.59 1.60 1.62 1.62 1.57 1.55 1.57 1.57 1.64 1.70 1.66 1.65 1.62 1.57 1.57 1.55 1.56 1.53 1.51 1.52 1.50 1.50 1.48 1.46 1.44 1.43 1.42 1.38 1.37 1.39 1.42 1.47 1.52 1.60 1.68 1.72 1.74 1.74 1.73 1.73 1.68 1.66 1.69 1.69 1.68 1.68 1.68 1.68 1.67 1.69 1.69 1.65 1.67 1.67 1.74 1.72 1.69 1.61 1.56 1.48 1.35
0.82 0.81 0.83 0.84 0.86 0.87 0.89 0.90 0.92 0.92 0.93 0.95 0.97 1.01 1.11 1.12 1.16 1.23 1.33 1.52 1.62 1.66 1.66 1.61 1.61 1.63 1.63 1.65 1.66 1.58 1.56 1.62 1.71 1.71 1.65 1.65 1.66 1.66 1.64 1.64 1.63 1.60 1.58 1.57 1.54 1.45 1.43 1.39 1.38 1.36 1.35 1.34 1.36 1.49 1.52 1.49 1.48 1.54 1.62 1.65 1.66 1.65 1.63 1.63 1.65 1.67 1.69 1.68 1.68 1.66 1.63 1.58 1.58 1.58 1.56 1.56 1.53 1.52 1.50 1.44 1.43 1.40 1.33 1.30 1.25
0.81 0.82 0.85 0.87 0.90 0.93 0.94 0.94 0.96 0.98 1.00 1.00 1.00 0.97 0.96 1.07 1.25 1.41 1.51 1.57 1.64 1.67 1.66 1.65 1.67 1.68 1.64 1.59 1.63 1.71 1.70 1.67 1.65 1.63 1.61 1.63 1.66 1.68 1.68 1.67 1.65 1.64 1.62 1.56 1.49 1.44 1.40 1.36 1.36 1.36 1.36 1.38 1.41 1.50 1.60 1.62 1.54 1.44 1.45 1.55 1.60 1.58 1.58 1.59 1.62 1.65 1.64 1.61 1.59 1.58 1.56 1.53 1.49 1.49 1.45 1.41 1.37 1.35 1.37 1.41 1.40 1.35 1.29 1.25 1.23
0.84 0.86 0.90 0.93 0.96 0.99 1.01 1.02 1.03 1.02 1.02 1.02 0.99 0.96 0.96 1.02 1.24 1.51 1.57 1.60 1.65 1.66 1.65 1.64 1.66 1.68 1.68 1.65 1.61 1.66 1.65 1.65 1.65 1.66 1.68 1.69 1.69 1.71 1.70 1.68 1.66 1.64 1.62 1.62 1.50 1.45 1.43 1.38 1.34 1.32 1.33 1.34 1.42 1.53 1.61 1.61 1.57 1.51 1.47 1.46 1.46 1.49 1.51 1.52 1.56 1.58 1.59 1.56 1.51 1.47 1.45 1.42 1.38 1.35 1.33 1.31 1.30 1.30 1.32 1.35 1.35 1.34 1.32 1.30 1.29
0.90 0.91 0.95 0.99 1.01 1.04 1.05 1.06 1.05 1.05 1.00 0.97 0.97 0.99 1.02 1.13 1.22 1.33 1.52 1.62 1.66 1.65 1.63 1.65 1.67 1.68 1.68 1.69 1.71 1.67 1.68 1.62 1.66 1.68 1.69 1.71 1.71 1.69 1.70 1.70 1.67 1.64 1.61 1.53 1.48 1.49 1.52 1.50 1.36 1.34 1.38 1.39 1.41 1.47 1.56 1.59 1.54 1.50 1.48 1.44 1.43 1.48 1.51 1.56 1.59 1.58 1.55 1.52 1.47 1.41 1.39 1.36 1.34 1.33 1.33 1.34 1.33 1.32 1.35 1.34 1.33 1.33 1.31 1.28 1.27
0.99 1.01 1.03 1.06 1.06 1.07 1.09 1.09 1.06 1.03 1.02 1.01 1.02 1.05 1.16 1.27 1.33 1.38 1.41 1.50 1.56 1.61 1.65 1.68 1.68 1.68 1.68 1.65 1.68 1.72 1.73 1.74 1.71 1.71 1.71 1.75 1.79 1.77 1.71 1.67 1.67 1.66 1.59 1.50 1.49 1.46 1.51 1.53 1.47 1.42 1.39 1.40 1.46 1.54 1.59 1.60 1.58 1.52 1.47 1.45 1.45 1.45 1.44 1.48 1.50 1.49 1.47 1.45 1.41 1.38 1.37 1.37 1.36 1.32 1.30 1.31 1.32 1.31 1.30 1.28 1.27 1.24 1.23 1.22 1.18
1.09 1.12 1.15 1.16 1.14 1.12 1.11 1.09 1.06 1.04 1.05 1.06 1.08 1.15 1.25 1.37 1.42 1.44 1.46 1.46 1.45 1.46 1.53 1.59 1.63 1.66 1.67 1.68 1.70 1.73 1.73 1.72 1.73 1.73 1.73 1.76 1.79 1.78 1.75 1.67 1.57 1.54 1.50 1.47 1.49 1.50 1.51 1.49 1.49 1.48 1.42 1.42 1.44 1.50 1.52 1.54 1.54 1.52 1.49 1.44 1.39 1.37 1.38 1.39 1.40 1.40 1.38 1.36 1.34 1.31 1.30 1.29 1.29 1.28 1.26 1.25 1.23 1.21 1.21 1.22 1.23 1.19 1.12 1.09 1.05
1.15 1.17 1.18 1.18 1.20 1.19 1.16 1.13 1.12 1.11 1.11 1.12 1.19 1.23 1.38 1.41 1.44 1.48 1.51 1.50 1.49 1.48 1.52 1.53 1.55 1.60 1.67 1.71 1.73 1.72 1.70 1.70 1.71 1.72 1.72 1.74 1.76 1.74 1.63 1.57 1.53 1.53 1.50 1.51 1.52 1.54 1.56 1.59 1.62 1.56 1.52 1.46 1.45 1.45 1.47 1.48 1.48 1.48 1.47 1.42 1.36 1.33 1.31 1.30 1.30 1.29 1.30 1.29 1.28 1.27 1.26 1.26 1.24 1.20 1.20 1.20 1.18 1.16 1.15 1.12 1.08 1.04 1.01 0.99 0.99
1.20 1.20 1.20 1.22 1.24 1.23 1.18 1.17 1.17 1.18 1.19 1.21 1.24 1.31 1.34 1.41 1.49 1.51 1.50 1.49 1.49 1.51 1.52 1.53 1.54 1.58 1.62 1.65 1.65 1.65 1.69 1.70 1.69 1.69 1.69 1.71 1.74 1.74 1.68 1.63 1.59 1.59 1.54 1.54 1.56 1.57 1.59 1.61 1.62 1.60 1.56 1.52 1.45 1.41 1.39 1.38 1.38 1.38 1.40 1.40 1.38 1.32 1.28 1.26 1.25 1.24 1.24 1.25 1.25 1.25 1.26 1.26 1.26 1.25 1.21 1.15 1.13 1.11 1.09 1.07 1.05 1.03 1.00 0.97 0.93
1.25 1.25 1.25 1.27 1.26 1.22 1.19 1.20 1.21 1.22 1.20 1.22 1.29 1.30 1.47 1.45 1.47 1.49 1.48 1.47 1.49 1.51 1.51 1.53 1.54 1.54 1.50 1.56 1.63 1.64 1.65 1.66 1.67 1.66 1.66 1.67 1.68 1.68 1.68 1.68 1.66 1.63 1.61 1.61 1.62 1.62 1.59 1.58 1.56 1.49 1.47 1.43 1.40 1.38 1.36 1.34 1.33 1.32 1.32 1.32 1.32 1.29 1.27 1.25 1.25 1.27 1.28 1.28 1.28 1.29 1.28 1.27 1.26 1.22 1.19 1.13 1.09 1.08 1.08 1.06 1.02 0.98 0.96 0.93 0.89
1.27 1.28 1.30 1.28 1.25 1.22 1.22 1.22 1.21 1.19 1.20 1.26 1.30 1.36 1.39 1.45 1.48 1.46 1.47 1.46 1.48 1.49 1.51 1.52 1.51 1.51 1.53 1.59 1.58 1.59 1.60 1.56 1.55 1.54 1.58 1.59 1.61 1.62 1.63 1.64 1.62 1.61 1.62 1.62 1.62 1.61 1.58 1.53 1.51 1.48 1.45 1.41 1.37 1.35 1.35 1.34 1.34 1.32 1.31 1.27 1.23 1.22 1.23 1.26 1.27 1.30 1.30 1.29 1.28 1.28 1.26 1.23 1.22 1.19 1.15 1.11 1.09 1.06 1.03 1.00 0.96 0.93 0.89 0.86 0.85
1.25 1.27 1.30 1.29 1.27 1.28 1.27 1.22 1.20 1.19 1.21 1.24 1.30 1.35 1.40 1.43 1.44 1.46 1.47 1.48 1.46 1.46 1.47 1.48 1.48 1.50 1.54 1.58 1.56 1.56 1.51 1.51 1.51 1.52 1.52 1.53 1.54 1.57 1.59 1.58 1.56 1.55 1.54 1.54 1.54 1.53 1.50 1.49 1.49 1.45 1.41 1.39 1.35 1.32 1.32 1.30 1.29 1.26 1.23 1.22 1.22 1.23 1.26 1.27 1.27 1.26 1.24 1.23 1.21 1.19 1.16 1.13 1.12 1.10 1.07 1.03 0.99 0.97 0.94 0.92 0.90 0.88 0.86 0.83 0.82
1.26 1.27 1.28 1.30 1.30 1.28 1.23 1.19 1.18 1.20 1.21 1.25 1.30 1.36 1.43 1.47 1.49 1.49 1.48 1.46 1.45 1.42 1.43 1.45 1.47 1.49 1.52 1.54 1.55 1.56 1.54 1.52 1.53 1.53 1.51 1.50 1.50 1.51 1.52 1.53 1.53 1.52 1.52 1.51 1.51 1.51 1.49 1.47 1.44 1.40 1.37 1.34 1.31 1.29 1.27 1.27 1.28 1.29 1.29 1.29 1.28 1.27 1.25 1.24 1.22 1.19 1.16 1.14 1.13 1.12 1.09 1.05 1.01 0.98 0.95 0.96 0.96 0.94 0.91 0.88 0.84 0.82 0.81 0.80 0.79
1.28 1.27 1.26 1.27 1.27 1.24 1.19 1.17 1.19 1.21 1.25 1.29 1.33 1.39 1.46 1.49 1.50 1.48 1.47 1.44 1.42 1.40 1.40 1.42 1.44 1.48 1.52 1.53 1.52 1.54 1.53 1.52 1.52 1.50 1.51 1.52 1.52 1.52 1.53 1.53 1.53 1.53 1.52 1.51 1.50 1.47 1.45 1.42 1.39 1.34 1.31 1.30 1.31 1.31 1.31 1.30 1.29 1.27 1.24 1.23 1.22 1.21 1.18 1.15 1.13 1.12 1.11 1.10 1.08 1.06 1.03 1.00 0.97 0.96 0.93 0.90 0.87 0.84 0.83 0.81 0.81 0.81 0.81 0.80 0.80
1.30 1.30 1.28 1.28 1.27 1.24 1.20 1.21 1.21 1.21 1.26 1.34 1.38 1.44 1.50 1.49 1.49 1.47 1.45 1.42 1.41 1.40 1.39 1.38 1.44 1.49 1.50 1.51 1.52 1.53 1.51 1.49 1.46 1.47 1.48 1.48 1.49 1.49 1.49 1.49 1.49 1.50 1.48 1.46 1.44 1.40 1.35 1.32 1.30 1.30 1.29 1.28 1.29 1.29 1.28 1.26 1.25 1.23 1.20 1.18 1.15 1.13 1.11 1.11 1.12 1.11 1.10 1.07 1.05 1.01 0.96 0.91 0.88 0.86 0.85 0.84 0.84 0.84 0.84 0.84 0.84 0.84 0.83 0.83 0.83
1.30 1.30 1.30 1.27 1.26 1.24 1.23 1.20 1.19 1.24 1.34 1.41 1.44 1.48 1.49 1.48 1.46 1.45 1.42 1.40 1.40 1.39 1.38 1.40 1.42 1.44 1.46 1.48 1.49 1.49 1.47 1.46 1.44 1.42 1.40 1.38 1.38 1.37 1.37 1.37 1.36 1.35 1.34 1.33 1.33 1.33 1.32 1.30 1.28 1.29 1.29 1.30 1.30 1.30 1.29 1.27 1.25 1.21 1.18 1.16 1.14 1.14 1.13 1.11 1.07 1.03 1.00 0.95 0.90 0.86 0.85 0.85 0.85 0.84 0.84 0.84 0.84 0.83 0.83 0.83 0.82 0.81 0.80 0.80 0.79
1.29 1.29 1.27 1.25 1.24 1.23 1.20 1.22 1.24 1.30 1.38 1.42 1.43 1.45 1.46 1.45 1.42 1.41 1.40 1.38 1.36 1.36 1.36 1.36 1.37 1.37 1.37 1.38 1.39 1.38 1.38 1.38 1.37 1.35 1.34 1.33 1.32 1.32 1.33 1.33 1.33 1.33 1.33 1.33 1.34 1.34 1.32 1.30 1.29 1.27 1.26 1.27 1.27 1.26 1.25 1.24 1.23 1.21 1.20 1.18 1.14 1.09 1.02 0.95 0.92 0.91 0.90 0.87 0.86 0.85 0.85 0.85 0.84 0.83 0.82 0.81 0.80 0.77 0.75 0.74 0.73 0.71 0.68 0.66 0.64
1.28 1.27 1.24 1.23 1.21 1.20 1.21 1.26 1.35 1.38 1.41 1.41 1.40 1.40 1.42 1.42 1.41 1.40 1.39 1.37 1.34 1.31 1.31 1.32 1.34 1.34 1.33 1.33 1.34 1.33 1.32 1.32 1.32 1.32 1.33 1.33 1.32 1.32 1.33 1.33 1.33 1.33 1.32 1.32 1.33 1.32 1.31 1.29 1.28 1.26 1.24 1.23 1.22 1.22 1.22 1.22 1.21 1.19 1.16 1.11 1.03 0.97 0.94 0.94 0.94 0.92 0.90 0.88 0.85 0.82 0.79 0.77 0.76 0.76 0.74 0.73 0.72 0.71 0.68 0.66 0.64 0.61 0.58 0.55 0.52
1.28 1.26 1.25 1.23 1.21 1.23 1.30 1.36 1.39 1.40 1.40 1.39 1.39 1.39 1.39 1.38 1.39 1.38 1.37 1.34 1.31 1.29 1.28 1.28 1.29 1.29 1.30 1.30 1.30 1.30 1.31 1.30 1.31 1.31 1.31 1.31 1.32 1.32 1.32 1.32 1.32 1.31 1.31 1.30 1.29 1.28 1.26 1.25 1.23 1.21 1.18 1.16 1.13 1.10 1.07 1.04 1.01 0.99 0.96 0.94 0.91 0.88 0.86 0.84 0.81 0.78 0.76 0.75 0.74 0.73 0.72 0.71 0.70 0.69 0.67 0.65 0.62 0.59 0.55 0.53 0.50 0.49 0.48 0.47 0.45
1.27 1.26 1.25 1.28 1.29 1.30 1.32 1.34 1.35 1.36 1.36 1.36 1.36 1.37 1.37 1.37 1.36 1.35 1.33 1.30 1.28 1.26 1.25 1.24 1.25 1.26 1.26 1.27 1.29 1.30 1.30 1.30 1.31 1.30 1.30 1.30 1.30 1.30 1.30 1.29 1.28 1.27 1.27 1.25 1.23 1.20 1.15 1.10 1.05 1.01 0.97 0.95 0.92 0.90 0.88 0.86 0.83 0.81 0.78 0.76 0.74 0.72 0.71 0.72 0.73 0.73 0.72 0.70 0.68 0.65 0.63 0.60 0.58 0.57 0.54 0.51 0.49 0.48 0.46 0.46 0.47 0.46 0.45 0.45 0.44
1.32 1.31 1.33 1.34 1.33 1.32 1.30 1.31 1.33 1.34 1.34 1.34 1.34 1.34 1.34 1.34 1.32 1.31 1.29 1.27 1.26 1.25 1.23 1.22 1.22 1.24 1.24 1.25 1.26 1.26 1.28 1.28 1.27 1.27 1.27 1.26 1.25 1.24 1.23 1.22 1.20 1.16 1.11 1.05 1.02 0.98 0.94 0.90 0.87 0.83 0.80 0.77 0.75 0.73 0.71 0.70 0.69 0.68 0.68 0.68 0.69 0.68 0.67 0.65 0.63 0.62 0.61 0.60 0.57 0.54 0.51 0.49 0.47 0.47 0.47 0.47 0.46 0.46 0.45 0.45 0.45 0.45 0.45 0.45 0.45
1.33 1.34 1.32 1.31 1.30 1.30 1.32 1.33 1.33 1.33 1.33 1.32 1.31 1.30 1.30 1.29 1.27 1.26 1.25 1.24 1.24 1.23 1.23 1.23 1.22 1.22 1.22 1.21 1.22 1.22 1.22 1.21 1.19 1.17 1.14 1.12 1.10 1.08 1.05 1.03 1.00 0.96 0.92 0.87 0.83 0.80 0.77 0.75 0.73 0.71 0.70 0.68 0.67 0.66 0.65 0.64 0.64 0.63 0.63 0.62 0.61 0.60 0.58 0.55 0.54 0.52 0.51 0.51 0.50 0.50 0.49 0.48 0.46 0.45 0.45 0.44 0.44 0.44 0.43 0.43 0.44 0.44 0.45 0.44 0.45
1.28 1.28 1.28 1.28 1.27 1.28 1.28 1.27 1.27 1.27 1.27 1.27 1.26 1.25 1.24 1.23 1.23 1.23 1.22 1.21 1.20 1.20 1.21 1.20 1.19 1.18 1.17 1.15 1.13 1.10 1.05 1.02 0.99 0.96 0.94 0.91 0.89 0.86 0.82 0.79 0.76 0.73 0.72 0.71 0.70 0.71 0.70 0.69 0.68 0.66 0.65 0.64 0.62 0.60 0.58 0.55 0.54 0.52 0.51 0.50 0.49 0.49 0.50 0.50 0.50 0.50 0.50 0.50 0.49 0.47 0.45 0.43 0.42 0.42 0.42 0.43 0.43 0.43 0.43 0.43 0.44 0.44 0.44 0.44 0.44
Wind_Speed
21 22 22 23 24 25 25 26 27 27 28 28 29 28 28 28 28 29 29 29 28 28 28 28 28 28 28 28 29 29 29 30 30 31 31 32 32 32 32 32 32 32 32 31 31 30 31 32 32 32 31 31 30 30 29 29 29 29 29 28 27 27 26 26 25 25 25 24 24 23 23 22 22 22 22 21 21 21 20 20 20 19 19 19 19
22 22 23 24 24 25 26 26 27 27 28 28 29 29 29 29 29 29 29 29 29 29 29 29 29 29 29 29 29 30 30 30 30 31 32 32 33 32 33 33 33 33 33 32 32 31 31 32 32 32 32 32 31 31 30 30 30 30 30 29 28 27 27 27 26 25 25 25 24 24 23 23 23 23 23 22 22 22 21 21 20 20 20 19 19
22 23 23 24 25 26 26 27 28 28 28 28 29 29 29 29 29 29 29 29 29 29 29 30 30 30 30 30 30 30 31 31 31 31 32 32 33 33 33 34 34 34 34 33 33 32 32 32 33 33 33 33 33 32 32 31 31 31 31 30 29 29 28 28 27 26 26 25 25 25 24 24 24 24 23 23 23 22 22 21 21 21 20 20 20
23 24 25 26 26 27 27 28 28 29 29 29 29 29 29 29 29 30 30 30 30 30 30 30 31 31 31 31 31 31 31 31 31 32 32 32 33 33 34 34 35 35 35 35 34 34 33 33 33 33 34 34 33 33 33 32 32 32 32 31 31 30 29 28 28 27 27 26 26 25 25 25 24 24 24 23 23 23 22 22 21 21 21 20 20
25 26 26 27 27 28 28 29 29 29 30 30 30 30 30 30 30 30 30 30 30 30 31 31 31 32 32 32 32 32 32 32 32 32 33 33 33 34 34 35 35 36 36 36 36 35 34 34 33 34 34 34 34 34 34 33 33 33 32 32 31 31 30 29 29 29 28 27 26 26 25 25 25 24 24 24 24 23 23 22 22 21 21 20 20
27 27 28 28 29 29 29 30 30 31 31 31 31 31 31 30 30 30 30 30 31 31 31 32 32 32 33 33 33 33 34 34 33 34 33 33 33 34 35 35 36 36 37 37 37 36 36 35 34 34 34 35 35 35 35 34 34 34 34 33 32 32 31 30 30 29 29 28 27 27 26 26 25 25 25 25 24 24 23 22 22 22 21 21 20
29 29 30 30 30 31 31 31 31 32 32 32 32 32 31 31 31 31 31 31 32 32 32 33 33 33 34 34 34 34 35 34 34 35 35 34 34 34 35 36 36 36 37 38 38 38 37 36 36 35 35 35 35 35 35 35 35 35 34 34 33 33 32 31 31 30 30 29 28 28 27 27 26 26 26 25 25 24 24 23 22 22 22 22 21
30 31 31 31 32 32 32 32 33 33 34 34 33 33 33 32 32 32 32 33 33 33 34 34 34 34 35 35 35 35 35 35 35 35 36 36 35 35 35 36 36 37 37 38 38 38 38 37 37 36 36 36 36 36 36 36 35 35 35 34 34 33 33 32 32 31 30 30 29 28 28 28 27 27 26 26 25 25 25 24 23 23 23 23 22
32 32 32 33 33 33 33 34 34 34 35 35 35 34 34 33 33 33 33 34 34 34 35 35 35 36 36 36 36 36 36 36 36 36 36 36 36 36 36 36 37 37 37 38 38 39 39 38 38 38 38 38 38 38 38 37 37 36 35 35 35 34 34 33 32 32 31 30 30 29 29 29 28 28 27 27 27 26 26 25 25 24 24 23 23
32 33 33 34 34 34 35 35 35 35 35 36 35 35 34 34 34 34 34 34 35 35 35 35 36 36 37 37 37 37 36 36 37 37 37 37 37 37 37 37 37 38 38 38 38 39 39 39 39 39 39 39 39 39 39 39 38 38 37 36 36 35 35 34 33 32 32 31 31 30 30 29 29 29 29 29 29 27 27 26 26 25 24 23 23
33 34 34 35 35 35 36 36 36 36 36 36 35 35 34 34 34 34 34 34 35 35 35 36 36 37 37 37 37 37 36 37 37 37 37 37 38 38 38 38 38 38 39 39 38 39 39 39 39 39 40 39 39 39 40 40 39 39 39 38 38 37 36 35 34 33 33 32 32 31 31 30 30 31 30 30 29 29 28 28 27 26 25 24 24
33 34 34 35 35 36 36 36 36 36 35 35 34 34 33 33 33 34 34 35 35 35 36 36 36 36 37 37 37 37 36 37 37 37 37 38 38 39 39 39 38 39 39 39 39 39 39 39 39 39 39 39 39 39 39 40 40 40 40 40 40 39 38 37 36 35 34 34 33 33 32 32 32 32 31 31 31 30 30 29 28 27 27 26 26
34 34 35 35 35 35 35 35 35 35 34 34 33 33 33 33 33 34 34 35 35 35 36 36 36 36 36 36 36 36 36 37 37 37 38 38 38 39 39 39 39 39 39 40 40 39 39 39 39 39 39 39 39 39 39 39 40 40 41 41 41 40 39 39 38 37 36 35 34 34 34 34 33 33 33 33 32 31 31 30 30 29 29 28 27
34 34 35 35 35 35 35 34 34 34 33 33 32 32 33 33 33 34 34 35 35 35 35 36 35 36 36 36 36 36 36 36 37 37 37 37 38 38 39 39 39 39 40 40 40 40 39 39 39 39 39 39 39 39 39 39 39 40 41 41 40 40 39 39 39 38 37 37 36 36 36 35 35 35 35 35 34 33 32 31 31 31 30 30 29
34 35 35 35 35 34 34 33 33 33 33 32 32 32 32 33 33 34 34 34 34 35 35 35 35 35 35 35 36 36 36 36 37 37 37 37 37 37 38 38 39 39 39 40 40 40 40 40 40 40 40 39 39 39 39 39 39 39 40 40 39 39 40 39 39 38 38 38 38 37 37 37 37 36 36 36 35 35 34 33 32 31 30 30 29
34 34 34 34 34 33 33 33 32 32 32 32 32 32 32 32 33 33 33 34 34 34 34 34 34 34 35 35 36 36 36 36 36 36 36 37 37 37 37 38 38 38 39 39 40 40 40 40 40 40 40 40 40 39 39 39 39 39 39 39 39 39 40 40 40 40 40 39 39 39 38 38 38 37 37 37 36 35 34 32 32 31 30 29 29
34 34 33 33 33 32 32 32 32 31 31 31 31 31 32 32 33 33 33 33 33 33 33 33 34 34 35 36 36 36 35 35 35 36 36 36 36 36 37 37 37 38 38 39 39 39 40 40 40 40 40 40 40 40 40 40 39 39 38 38 38 39 39 40 40 41 41 40 40 40 39 39 38 38 38 38 37 35 33 32 32 32 31 31 30
33 32 32 32 31 31 31 31 30 30 30 31 31 32 32 32 32 32 32 33 33 33 33 33 34 35 35 35 35 35 35 35 35 35 35 36 36 36 36 37 37 37 38 38 38 39 40 40 41 40 40 40 40 40 40 40 40 39 38 37 37 38 38 38 39 40 41 41 41 40 39 39 39 39 39 39 38 37 36 34 33 33 33 32 31
32 32 31 31 31 30 30 30 30 30 31 31 31 32 32 32 32 32 32 32 32 33 33 33 34 34 34 34 34 34 34 34 34 34 35 35 36 36 36 36 36 36 37 37 38 38 39 40 41 41 40 40 40 40 40 40 40 39 38 37 37 37 37 37 38 38 39 40 41 40 40 39 39 39 40 40 40 39 38 36 34 34 34 33 32
32 31 31 31 31 31 30 30 31 31 31 32 32 31 31 31 31 31 32 32 32 32 33 33 33 32 32 32 33 33 33 33 33 33 33 34 34 34 35 35 36 35 36 36 37 37 38 38 39 40 40 40 40 40 40 40 40 39 38 37 37 36 35 36 37 37 38 39 40 39 39 39 39 39 40 40 40 40 39 37 36 35 34 34 33
32 31 31 31 31 31 31 31 31 31 31 31 31 31 31 31 31 31 31 31 31 32 32 32 31 31 31 31 31 31 31 32 32 32 32 33 33 33 33 34 34 34 35 36 36 37 37 37 38 38 39 39 39 40 40 40 40 39 38 37 36 35 35 35 36 37 37 38 38 38 38 38 39 39 39 39 39 39 38 37 36 36 35 34 34
32 32 31 31 31 31 31 31 31 31 31 31 31 31 30 30 31 31 31 31 31 31 31 31 30 30 30 30 30 30 30 31 31 31 31 31 31 31 32 33 33 33 34 35 35 35 36 36 37 37 38 38 38 39 39 39 39 39 38 37 37 36 36 35 35 36 36 36 36 37 38 38 38 39 38 38 38 38 38 37 37 36 35 35 35
32 32 31 32 32 32 32 32 31 31 30 30 30 31 30 30 30 31 30 31 30 30 30 29 30 30 29 29 28 28 28 29 29 29 29 29 29 30 30 31 32 32 33 33 34 34 34 35 36 36 37 37 37 37 37 37 37 37 37 37 36 36 36 35 34 35 35 35 35 36 36 36 37 37 37 37 37 37 37 37 37 35 34 34 34
32 31 31 31 32 32 31 31 31 30 30 30 30 30 30 30 30 30 30 30 30 29 28 28 29 29 28 28 27 26 26 26 26 26 27 27 27 27 28 29 30 31 31 32 32 33 33 34 34 35 36 36 36 36 36 36 36 35 35 35 35 35 35 34 34 34 34 34 34 34 33 34 34 34 35 35 36 36 36 36 35 34 33 33 33
31 31 31 31 31 31 31 31 30 30 30 30 30 30 30 30 29 29 29 29 28 27 27 28 28 27 27 27 26 25 25 24 24 24 24 24 24 25 25 26 28 29 30 30 31 31 32 32 33 33 34 35 35 35 35 34 34 33 33 33 33 33 33 32 32 32 31 31 31 30 30 30 30 31 32 32 33 33 34 33 33 33 32 32 32
31 31 31 31 31 31 31 30 30 29 29 29 29 29 29 29 28 28 27 27 26 26 27 27 27 26 26 25 25 24 24 23 22 21 22 22 22 22 23 24 26 27 28 28 29 30 31 31 32 32 33 33 33 33 33 33 32 32 31 31 31 30 30 30 29 28 28 28 27 27 27 27 28 28 28 28 28 29 30 31 31 31 31 31 30
31 31 31 31 31 31 30 30 29 29 29 28 28 28 28 27 27 26 25 25 25 25 26 26 25 25 25 24 23 23 22 21 20 20 20 20 20 20 21 22 23 24 25 26 27 28 28 29 29 29 30 30 31 31 31 31 30 29 29 29 29 28 28 28 27 27 26 26 25 25 24 24 24 23 23 24 25 26 27 28 28 29 30 29 28
31 31 31 31 31 30 30 29 29 28 27 27 27 27 27 26 25 24 24 24 24 25 25 25 25 25 24 23 22 22 21 20 19 18 18 17 18 18 19 19 20 21 22 24 25 26 26 26 26 27 27 28 28 28 28 29 28 28 28 28 27 26 25 25 25 24 24 23 23 22 21 21 20 20 21 21 21 22 23 24 24 25 27 27 27
31 31 31 30 29 29 28 27 27 26 26 26 26 26 26 25 24 23 23 23 23 24 24 24 24 24 24 23 22 20 20 20 19 17 17 17 17 17 17 18 18 19 21 22 23 23 24 24 24 25 25 25 25 26 26 26 26 26 26 26 26 25 24 24 24 23 22 21 20 20 20 19 19 19 19 19 20 21 21 22 22 23 23 24 25
30 30 29 28 27 27 26 25 25 25 25 26 25 25 25 24 22 22 22 22 22 22 22 22 23 24 23 22 20 19 19 19 18 17 16 17 17 17 17 17 17 18 19 20 21 22 22 23 23 23 24 24 23 23 23 24 24 25 24 24 24 24 23 23 23 22 20 19 19 19 18 18 17 17 16 16 17 18 19 20 22 22 21 22 23
29 28 27 26 26 25 25 25 25 25 24 24 24 24 23 22 20 20 21 21 21 20 21 22 23 23 21 20 19 19 18 17 16 15 15 15 15 16 17 17 17 17 17 18 19 20 21 21 22 22 22 22 22 21 21 22 23 23 23 23 22 22 22 21 21 20 19 18 18 18 17 17 16 16 16 15 15 16 17 18 19 20 21 21 21
27 26 26 26 26 25 25 25 24 23 23 23 22 21 20 20 19 18 18 19 19 19 20 22 22 21 19 17 16 15 14 13 13 12 12 12 13 13 15 16 16 16 17 17 17 18 19 19 20 21 21 21 20 19 19 20 21 22 22 22 21 20 20 19 19 19 18 17 17 17 17 16 16 16 16 16 16 16 17 18 19 20 20 19 19
26 26 26 26 25 25 24 24 23 22 22 21 20 19 18 18 18 17 17 17 18 18 19 20 20 18 16 14 13 11 10 10 10 9 10 10 10 10 12 13 14 15 16 16 15 15 16 17 18 19 20 20 19 18 18 18 19 20 20 19 19 18 18 18 18 17 17 17 17 17 16 16 15 15 15 16 16 16 16 17 18 19 19 19 19
26 26 26 25 24 23 23 22 21 20 19 18 18 18 17 17 16 16 16 16 17 17 18 17 16 14 13 12 11 9 8 8 7 7 7 6 6 6 8 10 11 12 13 13 13 13 14 14 16 17 17 18 18 17 17 16 17 17 17 17 17 17 17 17 16 16 16 15 15 15 15 15 14 14 14 14 15 15 15 16 16 17 17 17 17
25 25 25 24 22 21 21 20 19 18 17 17 17 17 16 14 13 13 13 15 15 16 15 15 14 12 11 9 8 8 7 7 6 5 5 4 3 3 5 7 8 9 10 11 11 12 12 13 14 15 16 16 16 16 15 15 15 15 15 15 15 15 16 16 16 15 15 14 13 13 13 13 13 13 13 13 14 14 14 14 14 14 14 15 15
23 22 22 21 20 19 18 18 17 16 16 15 15 14 12 11 10 11 12 13 13 13 13 12 11 11 10 8 7 7 6 6 5 4 4 3 2 0 2 4 6 8 9 10 10 11 11 12 12 13 13 14 14 14 14 14 14 14 14 13 14 14 14 14 14 14 13 13 12 12 12 12 12 12 13 13 13 13 13 12 12 12 13 13 14
21 20 20 19 18 16 15 15 15 14 14 13 13 10 8 8 9 10 10 10 10 11 11 11 10 10 9 8 7 6 6 5 4 4 4 3 2 2 4 5 6 8 9 10 10 11 11 11 11 12 12 13 13 13 13 13 13 13 12 12 12 12 12 13 13 13 13 12 12 12 12 12 13 13 13 13 12 12 12 12 12 12 13 13 14
19 19 18 16 15 14 13 12 12 11 11 10 9 7 6 7 8 8 8 8 9 9 10 10 11 11 9 8 7 6 6 5 4 4 4 4 4 5 6 7 8 8 9 10 10 11 11 12 12 12 13 13 13 12 12 12 12 12 12 11 11 11 11 12 12 12 12 12 12 12 12 12 12 12 12 12 12 12 12 12 12 12 13 13 14
18 18 17 15 13 12 11 10 9 9 8 7 6 6 6 6 6 6 6 7 7 8 9 10 11 10 9 8 7 6 5 5 5 5 6 6 6 6 7 8 9 9 10 11 11 12 13 13 13 13 12 12 12 12 12 12 11 11 11 11 11 11 11 11 11 11 11 11 11 11 11 11 11 11 10 10 11 11 11 12 12 13 13 14 15
17 16 15 14 12 10 9 8 8 7 7 6 5 4 4 4 5 5 5 6 7 8 9 10 10 10 9 8 8 7 7 8 8 8 8 9 9 9 10 10 11 11 12 13 14 14 14 14 13 12 11 11 11 12 12 11 11 11 11 10 11 11 10 10 10 10 10 10 10 10 10 9 9 10 10 10 10 11 12 12 13 14 14 15 15
15 14 13 12 10 9 8 7 7 6 5 4 3 2 2 3 4 5 5 6 6 7 8 9 10 10 9 9 10 10 10 12 13 13 14 14 14 13 13 13 14 14 14 14 14 14 14 13 12 11 10 10 11 11 11 10 10 10 9 9 9 9 9 9 9 9 9 9 8 8 8 8 9 9 10 10 11 11 12 12 13 13 13 14 14
13 12 11 10 8 7 6 6 5 4 3 3 1 1 2 3 4 5 6 6 6 7 8 9 10 11 11 12 14 14 15 16 16 16 17 17 16 16 15 15 15 15 15 14 14 13 12 12 11 11 11 11 11 11 10 9 9 8 8 8 7 7 7 7 7 7 7 7 7 7 7 8 8 9 9 10 10 11 11 12 12 13 13 14 14
11 10 9 7 6 5 5 4 4 3 3 3 2 3 3 4 5 5 6 6 7 8 8 9 11 12 13 15 16 17 17 17 16 16 16 16 16 16 16 16 15 15 14 13 13 12 12 13 13 13 13 12 11 10 9 8 8 7 7 7 6 6 5 5 5 5 5 5 5 5 6 7 7 8 9 9 10 11 12 12 13 13 14 14 15
9 7 6 5 4 4 4 3 3 3 4 5 5 5 6 6 6 7 7 8 8 9 10 11 12 13 14 15 16 16 16 16 16 16 16 16 16 16 16 16 15 15 15 14 14 14 14 14 14 13 11 10 9 8 7 7 6 6 6 5 4 4 3 3 3 3 3 4 4 5 6 6 7 8 9 10 10 11 12 12 13 13 14 14 14
7 6 5 5 4 4 5 5 5 5 6 6 6 7 8 8 8 9 9 9 10 10 11 12 13 14 15 14 14 15 16 16 16 16 16 16 16 16 16 16 16 16 15 14 13 13 13 13 12 10 9 8 7 6 6 5 5 4 4 3 3 2 1 1 2 3 4 5 5 6 7 8 8 9 10 10 11 11 12 12 12 12 13 13 14
8 7 7 7 7 7 7 7 8 8 8 8 8 9 9 10 10 11 11 11 12 12 13 14 14 15 16 15 15 15 16 16 16 16 15 14 14 14 15 14 14 14 13 13 12 12 11 11 10 9 8 8 7 6 5 4 4 3 2 1 1 1 1 3 4 5 6 6 7 8 8 9 9 9 10 10 10 11 11 11 11 12 13 13 14
11 11 10 10 11 11 10 10 10 10 9 9 10 10 11 11 12 12 13 13 14 14 14 15 15 16 16 16 15 15 15 14 14 13 13 13 13 13 13 12 12 11 11 11 11 10 10 9 9 8 8 7 6 6 5 4 3 3 3 3 3 3 3 4 5 5 6 7 7 7 8 8 9 9 9 10 10 10 11 11 12 12 13 14 14
13 13 13 13 12 12 11 11 10 10 10 11 12 12 12 13 13 14 14 15 15 15 15 15 15 15 15 15 15 14 14 13 12 12 12 12 12 12 12 12 12 12 11 11 11 10 10 10 9 9 8 8 7 6 6 5 5 4 4 4 4 4 4 5 5 5 6 6 7 8 8 8 9 9 10 10 11 11 11 12 13 13 14 14 14
15 15 15 14 14 13 13 12 12 12 13 13 14 14 14 14 15 15 15 15 15 15 15 15 15 15 15 15 15 14 14 13 13 12 12 12 12 12 13 13 13 13 12 12 11 11 11 11 10 10 9 9 8 8 7 7 6 6 5 5 5 6 6 6 6 7 7 8 8 9 9 10 10 10 10 11 11 12 12 13 13 14 14 14 15
18 17 17 17 16 16 16 16 16 16 17 17 17 16 16 16 16 16 16 15 15 15 15 15 15 15 15 15 15 15 14 14 14 13 13 13 13 13 13 13 13 13 13 12 12 12 11 11 10 10 9 9 8 8 7 7 7 7 7 7 7 7 7 7 8 8 8 9 9 10 10 10 10 11 11 12 12 12 13 13 14 14 15 15 16
19 19 19 18 18 18 18 19 19 19 19 19 19 19 18 18 17 16 16 16 16 15 15 15 16 16 16 16 15 15 15 15 14 14 14 14 14 13 13 13 13 13 12 12 12 11 11 10 10 9 9 8 8 8 8 8 8 8 8 8 8 8 8 9 9 9 9 10 10 11 11 11 11 12 12 13 13 13 14 14 15 15 16 17 17
Wind_Direction
292 292 293 294 295 295 295 295 294 293 292 291 290 288 286 284 283 282 282 281 280 279 278 278 278 279 279 279 278 277 276 273 270 268 266 264 263 261 259 257 257 255 254 253 253 252 250 249 248 246 245 245 245 245 244 244 244 244 244 245 245 245 245 246 248 249 249 249 250 251 251 250 250 251 251 252 253 254 256 258 258 259 262 265 267
292 292 293 293 293 294 294 294 293 293 292 291 291 289 287 285 284 283 282 281 280 278 277 277 278 278 279 279 279 278 277 275 272 269 267 264 263 261 259 257 256 255 253 252 251 251 251 250 248 247 245 245 244 244 243 243 243 243 243 243 244 244 245 245 246 248 249 248 248 249 249 250 251 251 251 252 252 253 255 256 257 259 262 265 267
292 292 292 292 292 293 293 294 294 293 292 291 291 289 288 286 285 284 283 282 280 278 277 277 277 278 278 279 279 279 278 276 274 271 268 265 262 261 259 257 256 255 253 252 251 250 250 250 248 247 245 244 244 243 243 243 242 242 242 243 243 243 244 244 245 247 248 247 247 247 248 249 250 251 251 252 251 252 253 254 256 259 262 264 267
292 292 292 292 292 293 294 295 295 294 293 292 291 290 288 286 285 284 283 282 280 279 278 277 277 277 277 278 278 278 278 277 275 272 269 266 263 261 259 257 255 254 253 252 251 250 250 249 249 247 246 244 243 243 242 242 242 242 242 242 243 243 244 244 244 245 246 247 247 247 248 249 251 251 251 251 251 251 253 254 255 258 261 263 266
292 292 292 292 293 293 295 296 296 296 295 294 292 290 288 287 285 284 283 282 281 279 278 277 277 277 277 277 277 277 277 277 275 273 270 267 264 262 259 257 255 254 253 252 251 250 249 249 248 248 246 245 243 243 242 241 241 241 242 242 243 243 244 244 244 245 245 246 247 247 248 249 250 251 250 249 250 251 252 253 254 257 260 263 266
293 293 293 294 294 295 296 297 297 297 296 295 293 291 289 287 285 284 283 282 281 280 279 278 277 277 277 277 277 277 277 276 275 273 271 268 265 262 260 258 256 254 252 251 250 249 249 248 248 247 247 245 244 243 242 241 241 241 241 241 242 243 243 244 244 244 244 245 246 247 247 247 249 250 249 249 249 250 250 252 254 256 259 262 265
295 295 295 296 296 296 296 296 296 297 296 295 294 291 289 287 285 284 283 282 282 281 280 279 278 278 278 277 277 277 277 275 274 272 271 269 266 263 260 258 256 254 253 251 249 249 248 248 247 247 246 245 245 244 242 242 241 241 241 241 241 242 242 243 243 243 244 245 246 246 247 247 248 249 249 249 249 250 250 252 254 256 258 260 262
296 296 296 296 296 296 296 295 295 296 296 295 294 292 289 287 285 284 283 282 282 281 281 280 279 278 278 278 277 277 276 275 274 272 270 268 266 263 260 258 256 254 253 251 249 248 248 247 246 246 246 245 245 244 243 242 242 242 242 242 241 241 242 243 243 243 244 245 246 247 247 247 247 249 249 248 249 250 251 252 254 255 257 258 259
296 296 296 295 295 295 295 295 295 295 295 294 293 292 290 287 286 284 283 283 282 282 281 280 280 279 278 278 277 277 276 275 273 271 269 267 265 263 260 258 256 254 253 251 250 248 247 247 246 245 245 245 245 244 243 241 241 242 242 242 241 241 242 242 243 243 244 245 246 247 247 247 247 247 247 248 249 251 251 252 253 255 256 257 258
295 295 295 295 295 295 295 295 294 294 294 293 292 291 289 288 286 285 284 284 283 283 282 281 280 279 279 278 278 277 276 275 273 271 269 267 265 263 260 257 255 254 252 251 250 248 247 247 246 245 245 245 244 244 243 242 241 241 242 242 242 241 241 242 243 243 244 245 246 246 247 247 247 247 248 249 250 251 251 252 253 254 254 256 258
295 295 295 295 295 294 294 294 294 293 293 292 291 290 289 288 287 286 285 285 284 283 283 282 281 280 280 279 278 277 276 274 273 270 268 266 265 262 260 257 255 253 252 251 250 248 246 246 246 245 245 244 243 243 243 242 242 241 242 242 242 241 241 242 243 243 243 244 245 245 246 247 247 246 248 249 250 250 251 252 253 252 252 255 257
295 295 295 295 294 294 293 293 293 293 292 292 291 290 289 288 287 286 285 285 285 284 283 283 282 281 280 279 278 277 276 274 272 270 268 266 264 262 260 258 255 253 252 250 249 248 247 245 245 245 244 243 243 243 243 242 242 242 242 242 241 241 241 242 242 243 243 244 245 245 245 247 247 246 247 248 249 249 250 251 251 250 252 254 257
295 295 295 294 294 294 294 294 293 293 293 292 292 291 289 288 287 286 286 286 285 285 284 283 283 282 281 279 278 277 276 274 273 270 268 266 264 262 260 258 255 252 251 250 248 247 246 245 244 244 243 243 243 243 243 243 242 242 242 242 241 241 241 241 242 243 244 245 246 246 245 246 247 247 247 248 248 248 249 250 250 250 251 254 256
295 295 295 295 295 295 295 294 294 293 293 293 292 291 290 289 288 287 287 287 286 286 285 284 283 282 281 280 279 278 276 275 273 270 268 265 263 261 260 258 255 252 250 249 248 246 246 244 243 243 243 242 242 243 243 243 243 243 242 242 242 242 242 242 243 244 245 246 247 247 247 247 248 248 248 248 248 248 248 250 250 251 252 254 255
295 296 296 296 296 296 296 295 295 294 294 293 292 291 290 290 290 289 289 288 288 287 286 285 284 283 282 281 280 279 278 276 273 271 268 265 263 261 259 257 255 252 249 248 247 246 245 244 243 242 242 242 242 242 242 243 243 243 243 243 243 244 243 243 243 244 245 246 247 247 248 248 249 250 249 249 249 249 249 251 252 252 252 253 254
297 297 297 297 297 296 296 296 295 294 294 293 292 292 291 291 291 291 291 290 289 288 287 286 285 284 284 283 282 281 279 276 274 271 268 266 263 261 259 257 255 252 249 247 246 245 244 244 243 241 241 241 242 242 242 243 243 243 243 243 244 244 243 243 244 245 245 246 247 247 248 248 249 250 250 249 250 250 250 252 252 251 251 252 253
298 298 298 297 297 297 296 296 295 295 294 293 293 293 293 293 293 292 292 291 290 289 288 287 286 286 285 284 282 280 279 276 273 271 268 265 263 261 259 256 254 251 249 247 245 244 243 243 242 241 241 241 241 242 242 243 243 243 243 243 244 244 244 244 244 245 246 247 247 247 247 248 248 249 250 250 250 249 249 251 250 249 250 252 252
299 299 298 298 298 297 297 296 296 295 295 295 294 294 294 294 294 293 293 292 291 290 289 289 288 287 286 284 282 280 278 276 274 272 268 265 262 260 258 256 253 251 249 247 245 244 242 242 241 241 241 240 241 242 241 242 243 242 242 242 243 243 244 244 245 246 246 247 246 247 248 249 249 250 250 250 250 248 248 249 249 248 249 251 251
299 299 299 299 298 298 298 297 297 296 296 296 295 295 295 295 295 294 293 293 292 292 291 291 290 289 287 285 282 280 278 276 275 272 269 265 261 259 257 255 252 250 248 247 245 243 242 241 241 240 241 241 241 241 241 241 242 242 241 241 243 243 244 245 246 246 246 246 246 247 249 250 251 252 251 250 249 248 248 249 249 249 250 249 249
300 299 299 299 299 298 298 298 297 297 297 296 296 296 295 295 295 295 295 294 294 293 293 292 291 289 288 286 284 282 279 277 275 272 270 266 262 259 256 253 251 248 247 246 245 243 241 240 240 240 241 241 241 241 241 241 241 241 240 241 242 244 245 245 246 246 246 246 246 247 249 251 252 253 253 251 250 249 248 249 250 251 250 248 247
300 299 299 299 299 298 298 298 297 297 297 297 296 296 296 296 296 296 296 295 294 294 295 294 292 290 289 288 286 283 281 278 276 273 270 266 262 258 255 252 249 247 246 245 244 243 241 240 240 240 240 240 240 241 241 241 241 241 240 240 242 244 245 246 247 247 248 248 248 248 250 251 253 254 253 252 250 249 248 248 250 250 249 247 246
299 299 298 298 298 298 298 298 297 297 297 297 297 296 296 297 297 297 296 296 295 295 295 294 293 292 291 289 287 284 282 280 277 274 270 265 261 257 253 250 248 246 245 244 243 242 241 240 240 239 239 239 240 240 241 241 242 241 240 241 243 244 245 247 248 248 249 250 250 250 251 252 253 254 253 251 250 249 248 248 249 249 249 248 248
298 298 298 298 298 299 298 298 298 297 297 297 297 297 297 297 297 297 296 296 296 296 295 295 296 295 294 292 289 286 284 282 279 274 269 265 261 256 252 250 247 244 243 242 242 241 240 239 239 239 239 239 239 239 240 241 242 242 241 241 242 244 245 247 249 249 249 250 251 251 252 253 253 253 251 251 250 250 248 247 248 248 248 248 249
298 298 298 298 298 299 299 298 298 297 297 297 297 297 297 297 297 297 296 296 296 296 295 296 297 297 296 294 292 288 286 285 281 275 269 264 260 256 252 249 246 244 242 241 240 240 240 239 239 238 238 238 238 238 239 240 241 241 241 241 242 244 245 247 248 249 249 250 251 252 253 254 254 252 251 251 251 250 248 247 247 246 246 246 247
298 298 298 298 298 299 299 298 298 297 297 297 297 297 298 298 298 297 296 296 296 296 296 297 298 298 298 296 293 289 288 287 283 276 269 264 260 255 251 247 245 243 241 239 239 239 239 238 238 237 237 237 237 237 237 238 239 240 240 241 243 244 245 245 246 247 248 249 250 252 253 253 254 254 253 252 251 249 247 245 244 244 243 243 243
299 298 298 298 298 298 298 298 297 297 297 297 297 298 299 299 298 297 296 296 297 297 298 299 300 300 299 297 293 291 289 287 283 278 271 265 261 256 250 246 244 242 240 238 238 238 238 237 237 237 237 236 236 236 236 236 237 238 239 240 242 244 244 244 244 245 246 247 249 251 252 253 255 255 254 252 250 248 246 243 241 240 240 241 239
300 299 299 299 298 298 298 298 297 297 297 297 298 299 299 300 299 297 297 297 298 299 300 301 301 301 300 298 294 292 290 287 282 278 273 268 262 256 250 246 244 241 239 236 236 236 236 236 235 235 235 235 234 234 234 234 235 236 238 239 240 242 243 243 244 245 246 246 247 249 251 252 254 255 255 255 253 250 247 246 244 241 238 236 232
301 300 299 299 298 298 297 297 297 297 297 298 299 300 300 300 299 297 297 297 299 300 302 303 303 302 301 299 295 292 289 286 282 277 272 268 263 257 251 246 243 240 237 235 234 234 234 233 233 233 232 232 233 233 233 232 233 234 235 236 237 238 240 240 242 244 245 245 245 247 249 252 254 254 255 257 255 250 246 244 243 238 233 228 224
301 300 299 299 298 297 297 297 297 298 298 299 299 300 299 299 298 297 297 299 300 302 303 304 305 305 303 299 295 291 288 285 282 278 273 269 264 257 251 246 242 239 236 234 232 231 231 230 230 230 230 230 231 231 231 231 231 232 232 233 234 236 238 239 240 241 242 243 245 246 248 250 252 251 249 248 246 243 240 236 232 228 224 221 221
302 301 300 299 298 298 298 298 298 298 299 300 300 300 299 297 296 297 299 301 303 304 305 306 307 307 305 299 294 290 287 285 283 281 277 271 263 255 249 244 240 238 235 231 229 228 228 228 229 228 227 226 226 227 227 227 228 229 229 231 232 234 236 237 238 239 241 242 243 243 244 245 247 247 244 241 239 238 236 233 229 226 224 223 224
303 302 301 300 299 298 298 298 298 297 298 299 300 300 299 298 297 298 301 304 305 305 306 308 310 310 306 300 295 292 289 285 282 281 278 272 263 254 247 242 238 234 231 228 227 226 226 226 226 224 222 220 221 223 225 225 225 226 226 228 230 232 233 234 235 236 237 239 239 239 240 242 242 243 242 241 240 238 235 234 232 232 233 234 235
303 302 302 301 300 299 298 298 297 296 298 299 299 299 300 301 301 302 305 307 308 308 310 312 313 312 308 303 299 297 292 286 282 280 278 272 263 254 246 240 235 231 228 227 227 227 226 225 222 219 216 216 217 220 223 222 222 222 222 223 226 229 230 231 232 233 234 235 236 237 238 238 238 240 241 241 241 240 238 239 239 239 240 242 243
303 302 302 300 299 299 298 297 296 296 297 299 299 299 299 299 301 305 309 311 311 312 315 316 317 316 311 307 304 301 297 293 291 288 286 280 267 252 242 235 229 226 225 226 226 225 222 219 217 215 213 212 213 214 216 217 217 218 219 220 221 224 225 226 227 228 231 233 234 235 236 237 238 240 242 242 243 244 243 243 242 241 240 241 242
304 303 301 300 299 299 298 297 296 296 297 297 298 299 298 299 301 307 311 315 317 320 322 323 323 323 318 313 311 309 307 306 304 300 299 294 272 245 231 223 219 218 219 220 220 218 215 212 210 209 208 208 208 209 210 211 211 212 213 215 217 219 221 223 224 225 227 230 232 233 235 238 239 240 242 244 245 246 245 244 243 242 240 240 242
305 304 303 301 300 299 298 297 296 295 295 296 298 298 298 300 304 310 315 320 324 327 330 331 331 330 328 325 323 322 321 322 321 321 324 324 305 244 217 210 206 206 207 208 208 207 205 202 200 201 201 201 202 203 204 206 207 207 208 211 214 217 219 221 222 223 225 228 230 232 234 236 237 238 240 242 244 244 243 243 243 242 239 238 239
309 308 306 303 301 299 298 297 295 294 294 297 299 298 299 304 310 314 320 325 330 334 337 339 339 340 341 343 344 343 341 340 341 347 353 356 359 64 175 180 183 186 189 191 190 188 186 185 186 188 191 193 196 199 201 202 203 203 204 208 211 213 215 217 218 219 221 223 226 228 231 233 236 238 241 243 242 240 237 236 237 237 237 237 239
313 312 310 307 304 302 299 297 296 297 298 300 302 303 306 312 315 319 325 330 337 342 345 348 351 355 355 355 357 2 6 7 11 18 24 32 55 96 127 140 147 155 162 167 169 168 167 168 172 175 177 180 184 188 191 194 195 196 197 200 204 207 209 211 213 215 216 219 223 227 231 235 238 240 241 240 238 235 232 233 236 238 240 241 243
316 316 315 313 311 307 303 301 301 303 305 305 305 305 311 318 324 328 334 339 347 354 358 1 5 8 9 8 8 12 18 25 38 51 57 66 83 98 113 121 126 132 140 148 155 158 160 162 163 165 167 169 171 172 175 179 182 186 189 193 197 199 200 201 205 209 213 217 223 228 232 235 238 240 240 239 238 237 236 236 239 241 242 244 248
318 318 319 318 315 311 307 307 309 312 313 311 307 305 313 326 336 342 346 351 358 2 5 9 12 14 17 20 22 28 36 45 60 72 79 87 96 103 111 117 119 123 128 132 137 141 145 148 149 150 154 158 162 165 168 172 176 181 185 188 191 192 194 199 204 209 214 218 223 227 231 235 239 242 243 241 240 240 239 240 243 245 247 250 253
319 320 320 320 317 313 311 312 316 318 317 315 310 309 324 343 354 359 3 8 12 11 11 15 17 18 22 30 37 47 59 69 79 85 89 93 97 102 108 112 113 114 117 121 125 128 130 133 136 138 143 149 155 161 166 169 172 175 178 181 185 190 194 200 204 208 212 217 222 227 233 237 240 242 242 242 242 243 244 246 249 251 253 254 256
319 320 320 321 320 318 318 322 324 323 322 319 313 317 350 9 18 23 24 26 26 24 25 28 29 31 39 45 49 60 76 86 89 89 89 91 94 96 100 104 108 111 113 116 120 124 126 129 132 133 137 143 150 154 157 160 161 163 166 171 177 182 187 193 198 203 208 214 220 225 230 235 238 241 243 245 247 249 250 252 253 255 256 258 259
320 320 321 322 323 325 328 332 332 333 338 344 347 30 46 43 45 43 39 39 41 41 41 42 43 48 57 62 67 79 89 93 92 89 88 89 90 92 95 99 104 108 112 114 116 119 122 124 125 125 127 131 134 137 141 147 152 155 159 163 167 169 175 183 191 198 205 211 217 223 229 235 241 245 248 251 254 256 258 260 262 263 264 265 265
324 323 325 327 330 336 343 348 353 8 28 45 72 86 73 64 63 58 54 56 58 56 57 58 58 62 71 77 82 89 94 94 91 89 87 87 88 90 93 96 99 103 106 108 110 111 112 112 113 113 113 114 117 120 126 134 142 146 150 153 157 162 172 183 193 203 213 220 227 234 241 247 252 256 259 262 264 266 267 268 269 269 269 270 270
334 336 340 346 354 9 25 34 41 56 71 80 87 86 80 78 77 72 71 73 71 67 69 72 70 72 79 85 88 90 92 93 91 88 87 88 89 90 92 93 93 95 97 98 100 102 103 104 106 107 106 107 109 113 117 124 130 136 141 147 153 163 177 191 208 226 238 243 249 256 261 264 266 267 268 269 269 269 270 270 271 271 271 272 273
0 5 12 20 31 48 61 66 70 78 85 87 87 86 87 88 87 83 81 82 79 75 76 77 75 76 81 86 86 87 90 92 90 89 89 89 88 88 89 90 90 90 91 93 97 99 99 98 99 100 102 104 108 110 114 120 126 132 139 148 154 162 187 228 256 268 272 273 275 276 276 277 277 277 277 277 276 275 275 274 274 274 275 276 277
37 42 48 55 63 72 78 80 82 85 87 87 88 92 93 92 90 88 87 86 83 80 79 77 76 78 82 84 84 86 89 91 89 87 86 86 84 85 87 88 88 88 89 90 93 96 97 96 94 93 94 98 101 103 106 109 111 110 104 96 77 344 311 301 298 296 294 292 291 289 288 288 288 288 287 286 285 284 283 282 281 281 281 281 282
54 59 64 69 75 81 84 84 84 84 83 85 91 96 96 93 90 89 88 87 86 84 82 79 79 81 84 84 83 83 87 91 89 85 83 83 84 84 84 83 83 84 85 86 88 91 92 92 92 91 91 92 91 89 87 80 70 57 41 25 5 344 332 323 317 312 308 304 302 301 299 298 297 296 295 294 292 290 289 287 287 286 286 286 286
61 66 70 74 78 81 81 81 81 80 82 86 92 95 96 94 91 89 89 89 88 87 85 82 81 82 83 83 82 82 85 88 89 86 84 83 83 82 82 83 85 86 86 86 85 84 83 84 83 82 80 77 73 70 64 56 47 39 30 20 9 1 354 344 333 327 322 317 312 309 307 305 303 301 299 297 295 293 292 291 290 290 289 289 289
64 68 71 73 74 75 76 78 80 82 84 89 91 92 92 92 90 89 90 90 89 87 85 83 82 82 81 81 81 82 83 85 86 85 84 82 82 82 84 85 86 85 84 83 80 78 77 76 74 71 68 65 61 57 53 47 41 35 28 21 15 10 3 352 340 332 326 320 315 312 309 308 306 303 301 299 297 296 296 295 294 294 293 293 293
66 69 71 73 74 75 77 79 82 83 85 87 89 90 90 91 91 91 91 90 88 86 85 83 82 81 80 80 80 82 83 85 86 86 86 85 84 83 83 82 82 81 79 77 75 73 71 68 65 62 58 54 49 44 38 33 27 20 14 11 6 360 352 344 337 332 326 321 317 314 312 311 309 308 306 305 304 303 302 301 300 299 298 297 296
68 70 73 76 77 78 78 80 81 83 85 87 88 89 90 91 91 91 90 88 85 84 83 83 82 82 82 81 82 83 83 84 84 84 83 82 81 80 79 78 77 76 74 72 69 66 62 58 54 50 45 39 35 30 24 18 14 9 6 4 359 353 346 341 337 333 330 325 321 318 316 315 314 312 311 310 308 307 306 304 303 302 300 300 299